When you browse on this site, cookies collect data to enhance your experience and personalize the content and advertising you see.
Visit our Privacy Policy to learn more. By continuing to use the site, you agree to this use of cookies and data.
  • en Suisse
  • Liste des pays
  • À 7 jours
  • Température de l'eau
  • Carte météo
  • Widgets météo
  • user-avatar
    Se connecter

    Météo par heure à Aylesbury

    Ce jour, 11 Décembre, Mercredi

    Heure Température Précipitation Vent Pression Humidité
    00:00 +5°C° 0 mm 4 m/s 747 mmHg 83%
    01:00 +4°C° 0 mm 4 m/s 747 mmHg 85%
    02:00 +4°C° 0 mm 4 m/s 747 mmHg 87%
    03:00 +3°C° 0 mm 4 m/s 747 mmHg 89%
    04:00 +3°C° 0 mm 4 m/s 747 mmHg 90%
    05:00 +3°C° 0 mm 3 m/s 747 mmHg 92%
    06:00 +2°C° 0 mm 3 m/s 746 mmHg 93%
    07:00 +3°C° 0 mm 3 m/s 746 mmHg 92%
    08:00 +3°C° 0 mm 4 m/s 745 mmHg 90%
    09:00 +3°C° 0 mm 4 m/s 745 mmHg 89%
    10:00 +4°C° 0 mm 4 m/s 744 mmHg 85%
    11:00 +5°C° 0 mm 5 m/s 744 mmHg 82%
    12:00 +6°C° 0 mm 5 m/s 743 mmHg 78%
    13:00 +5°C° 0.3 mm 5 m/s 743 mmHg 81%
    14:00 +5°C° 0.3 mm 5 m/s 742 mmHg 84%
    15:00 +5°C° 0.3 mm 5 m/s 742 mmHg 88%
    16:00 +3°C° 0.3 mm 5 m/s 742 mmHg 88%
    17:00 +3°C° 0.3 mm 4 m/s 742 mmHg 89%
    18:00 +1°C° 0.3 mm 4 m/s 742 mmHg 90%
    19:00 0°C° 0 mm 4 m/s 743 mmHg 89%
    20:00 0°C° 0 mm 4 m/s 743 mmHg 88%
    21:00 0°C° 0 mm 4 m/s 743 mmHg 87%
    22:00 0°C° 0 mm 4 m/s 744 mmHg 87%
    23:00 0°C° 0 mm 4 m/s 744 mmHg 87%

    Demain, 12 Décembre, Jeudi

    Heure Température Précipitation Vent Pression Humidité
    00:00 0°C° 0 mm 4 m/s 744 mmHg 87%
    01:00 -1°C° 0 mm 4 m/s 744 mmHg 88%
    02:00 -1°C° 0 mm 4 m/s 743 mmHg 88%
    03:00 0°C° 0 mm 3 m/s 743 mmHg 89%
    04:00 0°C° 0 mm 3 m/s 742 mmHg 89%
    05:00 0°C° 0 mm 3 m/s 742 mmHg 89%
    06:00 -1°C° 0 mm 4 m/s 742 mmHg 89%
    07:00 0°C° 0 mm 4 m/s 740 mmHg 88%
    08:00 0°C° 0 mm 4 m/s 739 mmHg 86%
    09:00 0°C° 0 mm 4 m/s 738 mmHg 85%
    10:00 +1°C° 0.2 mm 6 m/s 737 mmHg 87%
    11:00 +3°C° 0.2 mm 7 m/s 735 mmHg 89%
    12:00 +4°C° 0.2 mm 8 m/s 733 mmHg 91%
    13:00 +3°C° 3 mm 9 m/s 731 mmHg 91%
    14:00 +5°C° 3 mm 9 m/s 729 mmHg 92%
    15:00 +5°C° 3 mm 10 m/s 727 mmHg 93%
    16:00 +5°C° 2.2 mm 8 m/s 726 mmHg 92%
    17:00 +5°C° 2.2 mm 7 m/s 725 mmHg 92%
    18:00 +6°C° 2.2 mm 5 m/s 724 mmHg 91%
    19:00 +5°C° 0.1 mm 6 m/s 723 mmHg 90%
    20:00 +4°C° 0.1 mm 6 m/s 723 mmHg 88%
    21:00 +4°C° 0.1 mm 7 m/s 722 mmHg 87%
    22:00 +4°C° 0 mm 7 m/s 722 mmHg 87%
    23:00 +3°C° 0 mm 7 m/s 722 mmHg 87%

    Après-demain, 13 Décembre, Vendredi

    Heure Température Précipitation Vent Pression Humidité
    00:00 +3°C° 0 mm 7 m/s 722 mmHg 87%
    01:00 +2°C° 0.2 mm 8 m/s 722 mmHg 88%
    02:00 +1°C° 0.2 mm 8 m/s 722 mmHg 89%
    03:00 +1°C° 0.2 mm 9 m/s 722 mmHg 89%
    04:00 +2°C° 0.5 mm 9 m/s 722 mmHg 90%
    05:00 +2°C° 0.5 mm 9 m/s 723 mmHg 90%
    06:00 +2°C° 0.5 mm 9 m/s 723 mmHg 90%
    07:00 +2°C° 0.5 mm 9 m/s 724 mmHg 88%
    08:00 +4°C° 0.5 mm 8 m/s 725 mmHg 86%
    09:00 +4°C° 0.5 mm 8 m/s 726 mmHg 83%
    10:00 +4°C° 0 mm 8 m/s 727 mmHg 82%
    11:00 +5°C° 0 mm 8 m/s 728 mmHg 80%
    12:00 +5°C° 0 mm 8 m/s 729 mmHg 78%
    13:00 +5°C° 0 mm 8 m/s 729 mmHg 79%
    14:00 +5°C° 0 mm 8 m/s 730 mmHg 79%
    15:00 +5°C° 0 mm 8 m/s 731 mmHg 79%
    16:00 +4°C° 0 mm 7 m/s 731 mmHg 81%
    17:00 +4°C° 0 mm 7 m/s 731 mmHg 83%
    18:00 +3°C° 0 mm 7 m/s 732 mmHg 85%
    19:00 +3°C° 0.2 mm 7 m/s 730 mmHg 86%
    20:00 +3°C° 0.2 mm 7 m/s 729 mmHg 88%
    21:00 +2°C° 0.2 mm 8 m/s 728 mmHg 89%
    22:00 +2°C° 0.1 mm 9 m/s 728 mmHg 84%
    23:00 +3°C° 0.1 mm 9 m/s 727 mmHg 79%

    14 Décembre, Samedi

    Heure Température Précipitation Vent Pression Humidité
    00:00 +3°C° 0.1 mm 10 m/s 726 mmHg 74%
    01:00 +3°C° 0 mm 11 m/s 727 mmHg 74%
    02:00 +2°C° 0 mm 12 m/s 727 mmHg 74%
    03:00 +1°C° 0 mm 13 m/s 728 mmHg 74%
    04:00 0°C° 0 mm 12 m/s 729 mmHg 72%
    05:00 +1°C° 0 mm 11 m/s 730 mmHg 71%
    06:00 0°C° 0 mm 10 m/s 731 mmHg 70%
    07:00 0°C° 0 mm 9 m/s 732 mmHg 71%
    08:00 0°C° 0 mm 8 m/s 733 mmHg 72%
    09:00 0°C° 0 mm 8 m/s 733 mmHg 73%
    10:00 +1°C° 0 mm 8 m/s 734 mmHg 74%
    11:00 +1°C° 0 mm 9 m/s 734 mmHg 75%
    12:00 +1°C° 0 mm 9 m/s 734 mmHg 76%
    13:00 +1°C° 0.1 mm 8 m/s 735 mmHg 72%
    14:00 +1°C° 0.1 mm 8 m/s 735 mmHg 69%
    15:00 +2°C° 0.1 mm 7 m/s 736 mmHg 65%
    16:00 0°C° 0 mm 7 m/s 736 mmHg 67%
    17:00 -1°C° 0 mm 6 m/s 737 mmHg 68%
    18:00 0°C° 0 mm 5 m/s 737 mmHg 69%
    19:00 0°C° 0 mm 5 m/s 737 mmHg 72%
    20:00 0°C° 0 mm 5 m/s 737 mmHg 74%
    21:00 0°C° 0 mm 5 m/s 737 mmHg 76%
    22:00 +1°C° 0.5 mm 6 m/s 735 mmHg 81%
    23:00 0°C° 0.5 mm 7 m/s 734 mmHg 85%

    15 Décembre, Dimanche

    Heure Température Précipitation Vent Pression Humidité
    00:00 +1°C° 0.5 mm 8 m/s 732 mmHg 90%
    01:00 +1°C° 1 mm 9 m/s 732 mmHg 85%
    02:00 +1°C° 1 mm 10 m/s 731 mmHg 80%
    03:00 -1°C° 1 mm 11 m/s 730 mmHg 75%
    04:00 -1°C° 0 mm 12 m/s 731 mmHg 73%
    05:00 -1°C° 0 mm 12 m/s 733 mmHg 72%
    06:00 0°C° 0 mm 13 m/s 734 mmHg 70%
    07:00 0°C° 0 mm 10 m/s 735 mmHg 73%
    08:00 0°C° 0 mm 8 m/s 737 mmHg 76%
    09:00 -1°C° 0 mm 6 m/s 738 mmHg 79%
    10:00 +1°C° 0 mm 6 m/s 739 mmHg 77%
    11:00 +2°C° 0 mm 7 m/s 739 mmHg 75%
    12:00 +4°C° 0 mm 8 m/s 740 mmHg 73%
    13:00 +3°C° 0 mm 7 m/s 740 mmHg 74%
    14:00 +3°C° 0 mm 6 m/s 740 mmHg 76%
    15:00 +3°C° 0 mm 5 m/s 740 mmHg 77%
    16:00 +3°C° 0.1 mm 5 m/s 740 mmHg 81%
    17:00 +3°C° 0.1 mm 6 m/s 740 mmHg 84%
    18:00 +3°C° 0.1 mm 6 m/s 739 mmHg 88%
    19:00 +2°C° 0.1 mm 6 m/s 740 mmHg 86%
    20:00 +2°C° 0.1 mm 6 m/s 740 mmHg 84%
    21:00 +2°C° 0.1 mm 6 m/s 740 mmHg 82%
    22:00 +2°C° 0 mm 5 m/s 740 mmHg 83%
    23:00 +1°C° 0 mm 5 m/s 740 mmHg 84%

    16 Décembre, Lundi

    Heure Température Précipitation Vent Pression Humidité
    00:00 +1°C° 0 mm 4 m/s 740 mmHg 85%
    01:00 +1°C° 0 mm 4 m/s 740 mmHg 87%
    02:00 +1°C° 0 mm 4 m/s 740 mmHg 89%
    03:00 +1°C° 0 mm 4 m/s 740 mmHg 90%
    04:00 +1°C° 0 mm 4 m/s 740 mmHg 90%
    05:00 +2°C° 0 mm 3 m/s 740 mmHg 91%
    06:00 +2°C° 0 mm 3 m/s 740 mmHg 91%
    07:00 +2°C° 0 mm 3 m/s 741 mmHg 90%
    08:00 +2°C° 0 mm 3 m/s 741 mmHg 90%
    09:00 +2°C° 0 mm 3 m/s 741 mmHg 90%
    10:00 +3°C° 0 mm 3 m/s 741 mmHg 87%
    11:00 +4°C° 0 mm 3 m/s 741 mmHg 85%
    12:00 +5°C° 0 mm 3 m/s 741 mmHg 82%
    13:00 +5°C° 0 mm 3 m/s 741 mmHg 84%
    14:00 +5°C° 0 mm 3 m/s 740 mmHg 86%
    15:00 +6°C° 0 mm 2 m/s 740 mmHg 88%
    16:00 +5°C° 0 mm 2 m/s 740 mmHg 89%
    17:00 +5°C° 0 mm 2 m/s 740 mmHg 90%
    18:00 +6°C° 0 mm 1 m/s 740 mmHg 91%
    19:00 +6°C° 0 mm 1 m/s 740 mmHg 92%
    20:00 +6°C° 0 mm 1 m/s 740 mmHg 92%
    21:00 +5°C° 0 mm 1 m/s 740 mmHg 92%
    22:00 +5°C° 0 mm 1 m/s 740 mmHg 92%
    23:00 +5°C° 0 mm 1 m/s 740 mmHg 92%
    Voir plus